map of AMM home
AMM - Airport
Location
City:  Amman, Jordan
Name:Queen Alia International Airport
ICAO:OJAI
IATA:AMM

Details
Type:Airport (Aerodrome, Airfield)
Use:Public/Civil, International (customs port of entry)
Latitude:3143'21"N (31.722556)
Longitude:3559'36"E (35.993214)
Datum:WGS 1984
Elevation:2395 ft (730 m)
Variation:4.69E (WMM2015 magnetic declination)
0.08 annual change
Runways:2
Longest:12008 × 200 ft (3660 × 61 m), paved

Time
Time Zone:UTC+2 (DST+3)
Local Time:

Weather
METAR:OJAI 220400Z 00000KT 7000 NSC 12/08 Q1010 NOSIG
TAF:OJAI 212231Z 2200/2306 25010KT 7000 FEW035
TEMPO 2202/2214 5000 SHRA SCT030 BKN035
TEMPO 2209/2215 29018KT 4000 BLDU
BECMG 2218/2220 27010KT 7000 FEW030 PROB40 2300/2305 3000 BR

Related Locations
Nearby:
Farthest:RVV: 11848 mi / 19067 km
Raivavae, Tubuai Islands, Austral Islands, PF

Find:

   beyond  
but within

Other Information
Maps:
NOTAMs:
Links:
Sources:

  
flag of Jordan   

Sectional Chart

Flight Planning
at skyvector.com

Satellite Image

Google Maps Satellite view

 

Copyright © 2004-2018 Karl L. Swartz. All rights reserved.
The Great Circle Mapper name and logo are trademarks of the Great Circle Mapper.
All other trademarks mentioned herein belong to their respective owners.
Please see credits for attibutions and further copyright information.

  Follow gcmap on Facebook Follow gcmap on Twitter Follow gcmap on Google+ GCmap on LinkedIn

hCard Microformat

Geo Microformat